DW8454 Weather Reports


Display with metric or nautical units.
time (UTC)temp
F
wind
direction
speed
MPH
gust
MPH
rain 1hr
in
rain 24hr
in
rain mn
in
humidity
%
barometer
mb
20190116093359 30 285 9.0 19.0 0.00 0.00 0.00 85 1019.9
20190116092358 30 286 8.0 18.0 0.00 0.00 0.00 86 1019.8
20190116091418 30 283 4.0 12.0 0.00 0.00 0.00 85 1019.8
20190116090359 30 217 5.0 19.0 0.00 0.00 0.00 85 1019.7
20190116085405 30 288 6.0 19.0 0.00 0.00 0.00 85 1019.6
20190116084334 30 278 6.0 15.0 0.00 0.00 0.00 85 1019.4
20190116083338 30 263 5.0 15.0 0.00 0.00 0.00 85 1019.3
20190116082333 30 273 6.0 13.0 0.00 0.00 0.00 86 1019.3
20190116081344 30 215 6.0 17.0 0.00 0.00 0.00 86 1019.2
20190116080406 30 266 7.0 17.0 0.00 0.00 0.00 86 1019.1
20190116075424 30 250 7.0 14.0 0.00 0.00 0.00 87 1019.1
20190116074359 31 277 6.0 17.0 0.00 0.00 0.00 87 1018.9
20190116073350 31 244 6.0 17.0 0.00 0.00 0.00 87 1018.7
20190116072403 31 252 5.0 11.0 0.00 0.00 0.00 87 1018.6
20190116071414 30 263 4.0 11.0 0.00 0.00 0.00 87 1018.5
20190116070342 30 270 6.0 13.0 0.00 0.00 0.00 87 1018.4
20190116065339 30 236 6.0 14.0 0.00 0.00 0.00 87 1018.2
20190116064400 30 265 5.0 14.0 0.00 0.00 0.00 87 1018.1
20190116063354 30 246 5.0 12.0 0.00 0.00 0.00 87 1018.1
20190116062350 30 254 5.0 12.0 0.00 0.00 0.00 87 1017.9
20190116061350 30 261 6.0 12.0 0.00 0.00 0.00 87 1017.7
20190116060409 30 232 5.0 11.0 0.00 0.00 0.00 87 1017.6
20190116055348 30 231 4.0 13.0 0.00 0.00 0.00 87 1017.9
20190116054409 29 231 4.0 13.0 0.00 0.00 0.00 87 1018.1
20190116053341 29 256 4.0 10.0 0.00 0.00 0.00 87 1018.4
20190116052402 29 244 4.0 10.0 0.00 0.00 0.00 87 1018.4
20190116051358 29 256 5.0 10.0 0.00 0.00 0.00 87 1018.6
20190116050416 29 250 4.0 9.0 0.00 0.00 0.00 87 1018.6
20190116045345 29 227 4.0 9.0 0.00 0.00 0.00 87 1018.5
20190116044405 28 214 4.0 11.0 0.00 0.00 0.00 87 1018.4
20190116043351 28 248 4.0 12.0 0.00 0.00 0.00 87 1018.4
20190116042412 28 232 5.0 12.0 0.00 0.00 0.00 87 1018.5
20190116041408 28 250 3.0 11.0 0.00 0.00 0.00 87 1018.6
20190116040409 28 236 3.0 11.0 0.00 0.00 0.00 87 1018.6
20190116035359 27 221 4.0 11.0 0.00 0.00 0.00 87 1018.6
20190116034340 27 210 5.0 10.0 0.00 0.00 0.00 87 1018.7
20190116033328 27 199 4.0 12.0 0.00 0.00 0.00 87 1019.0
20190116032257 27 221 5.0 12.0 0.00 0.00 0.00 87 1019.0
20190116031236 27 199 4.0 9.0 0.00 0.00 0.00 87 1019.1
20190116030230 26 229 3.0 12.0 0.00 0.00 0.00 87 1019.2
20190116025237 26 231 3.0 12.0 0.00 0.00 0.00 87 1019.1
20190116024256 26 220 5.0 11.0 0.00 0.00 0.00 87 1019.2
20190116023307 26 186 5.0 11.0 0.00 0.00 0.00 87 1019.2
20190116022314 25 186 6.0 12.0 0.00 0.00 0.00 86 1019.2
20190116021243 25 200 7.0 12.0 0.00 0.00 0.00 86 1019.3
20190116020301 25 181 6.0 11.0 0.00 0.00 0.00 86 1019.4
20190116015229 25 199 7.0 11.0 0.00 0.00 0.00 86 1019.5
20190116014228 25 188 6.0 11.0 0.00 0.00 0.00 86 1019.7
20190116013217 25 200 6.0 11.0 0.00 0.00 0.00 86 1019.9
20190116012220 25 182 6.0 11.0 0.00 0.00 0.00 86 1020.1
20190116011213 24 192 7.0 11.0 0.00 0.00 0.00 86 1020.3
20190116010210 24 202 6.0 11.0 0.00 0.00 0.00 85 1020.5
20190116005235 24 183 7.0 11.0 0.00 0.00 0.00 85 1020.7
20190116004242 24 192 7.0 12.0 0.00 0.00 0.00 85 1020.9
20190116003241 24 191 6.0 12.0 0.00 0.00 0.00 85 1020.9
20190116002207 24 203 6.0 13.0 0.00 0.00 0.00 85 1021.1
20190116001143 24 193 6.0 13.0 0.00 0.00 0.00 85 1021.1
20190116000135 24 180 7.0 12.0 0.00 0.00 0.00 85 1021.1
20190115235148 24 199 7.0 12.0 0.00 0.00 0.00 85 1021.3
20190115234153 25 182 6.0 11.0 0.00 0.00 0.00 85 1021.4
20190115233218 25 194 6.0 12.0 0.00 0.00 0.00 85 1021.5
20190115232231 24 201 6.0 14.0 0.00 0.00 0.00 85 1021.6
20190115231207 24 219 5.0 14.0 0.00 0.00 0.00 84 1021.8
20190115230230 24 218 5.0 11.0 0.00 0.00 0.00 84 1021.8
20190115225247 24 230 6.0 11.0 0.00 0.00 0.00 84 1021.7
20190115224255 24 187 5.0 14.0 0.00 0.00 0.00 84 1021.8
20190115223245 24 207 6.0 14.0 0.00 0.00 0.00 83 1021.7
20190115222230 24 234 5.0 13.0 0.00 0.00 0.00 83 1021.8
20190115221250 24 190 6.0 12.0 0.00 0.00 0.00 82 1021.8
20190115220257 24 193 5.0 14.0 0.00 0.00 0.00 82 1021.8
20190115215254 24 193 5.0 14.0 0.00 0.00 0.00 82 1021.9
20190115214225 25 219 5.0 11.0 0.00 0.00 0.00 82 1021.9
20190115213210 25 221 6.0 14.0 0.00 0.00 0.00 81 1022.0
20190115212210 25 198 5.0 14.0 0.00 0.00 0.00 81 1022.1
20190115211205 25 210 4.0 13.0 0.00 0.00 0.00 81 1022.2
20190115210201 25 221 4.0 12.0 0.00 0.00 0.00 81 1022.3
20190115205205 25 229 5.0 12.0 0.00 0.00 0.00 81 1022.3
20190115204218 24 177 5.0 11.0 0.00 0.00 0.00 81 1022.4
20190115203202 24 223 4.0 11.0 0.00 0.00 0.00 81 1022.5
20190115202142 24 217 4.0 11.0 0.00 0.00 0.00 80 1022.5
20190115201124 24 223 6.0 15.0 0.00 0.00 0.00 80 1022.4
20190115200105 24 221 6.0 14.0 0.00 0.00 0.00 80 1022.5
20190115195109 24 229 9.0 14.0 0.00 0.00 0.00 80 1022.4
20190115194119 24 215 9.0 20.0 0.00 0.00 0.00 80 1022.4
20190115193103 24 216 10.0 20.0 0.00 0.00 0.00 80 1022.5
20190115192126 23 195 7.0 14.0 0.00 0.00 0.00 79 1022.7
20190115191111 23 240 8.0 14.0 0.00 0.00 0.00 79 1022.7
20190115190110 23 241 10.0 20.0 0.00 0.00 0.00 79 1022.7
20190115185043 23 215 7.0 20.0 0.00 0.00 0.00 79 1022.8
20190115184106 23 242 4.0 12.0 0.00 0.00 0.00 79 1023.0
20190115183051 23 219 6.0 15.0 0.00 0.00 0.00 80 1023.0
20190115182101 22 230 6.0 21.0 0.00 0.00 0.00 80 1023.0
20190115181108 22 213 6.0 21.0 0.00 0.00 0.00 80 1023.1
20190115180053 22 220 5.0 14.0 0.00 0.00 0.00 80 1023.3
20190115175051 22 225 6.0 14.0 0.00 0.00 0.00 81 1023.5
20190115174045 22 232 11.0 18.0 0.00 0.00 0.00 82 1023.3
20190115173042 22 234 9.0 18.0 0.00 0.00 0.00 82 1023.4
20190115172042 22 238 11.0 17.0 0.00 0.00 0.00 82 1023.5
20190115171034 22 232 8.0 17.0 0.00 0.00 0.00 83 1023.8
20190115170048 22 219 8.0 14.0 0.00 0.00 0.00 83 1024.0
20190115165033 22 238 9.0 14.0 0.00 0.00 0.00 83 1024.3
20190115164040 22 264 8.0 14.0 0.00 0.00 0.00 83 1024.3
20190115163104 22 232 7.0 14.0 0.00 0.00 0.00 83 1024.5
20190115162046 22 248 4.0 8.0 0.00 0.00 0.00 83 1024.5
20190115161046 23 235 3.0 14.0 0.00 0.00 0.00 83 1024.7
20190115160032 22 193 4.0 14.0 0.00 0.00 0.00 83 1024.7
20190115155031 22 236 4.0 14.0 0.00 0.00 0.00 83 1024.9
20190115154019 22 230 4.0 9.0 0.00 0.00 0.00 82 1024.8
20190115153002 22 186 4.0 12.0 0.00 0.00 0.00 82 1024.9
20190115151934 22 196 4.0 12.0 0.00 0.00 0.00 82 1024.8
20190115150925 22 225 3.0 7.0 0.00 0.00 0.00 81 1024.9
20190115145923 22 222 3.0 13.0 0.00 0.00 0.00 81 1024.8
20190115144945 22 229 4.0 13.0 0.00 0.00 0.00 80 1024.7
20190115143953 22 255 6.0 12.0 0.00 0.00 0.00 80 1024.6
20190115142946 22 204 4.0 11.0 0.00 0.00 0.00 80 1024.5
20190115142011 22 211 6.0 11.0 0.00 0.00 0.00 80 1024.5
20190115141012 22 234 3.0 7.0 0.00 0.00 0.00 80 1024.6
20190115140009 23 247 3.0 6.0 0.00 0.00 0.00 81 1024.5
20190115134937 23 211 4.0 12.0 0.00 0.00 0.00 81 1024.3
20190115133935 23 202 4.0 12.0 0.00 0.00 0.00 80 1024.1
20190115132919 23 271 3.0 9.0 0.00 0.00 0.00 80 1024.3
20190115131852 23 202 4.0 9.0 0.00 0.00 0.00 80 1024.2
20190115130910 23 215 2.0 10.0 0.00 0.00 0.00 80 1024.1
20190115125858 23 220 8.0 13.0 0.00 0.00 0.00 79 1024.1
20190115124842 23 219 6.0 13.0 0.00 0.00 0.00 79 1024.3
20190115123855 23 215 4.0 6.0 0.00 0.00 0.00 78 1024.2
20190115122859 23 221 5.0 9.0 0.00 0.00 0.00 78 1024.5
20190115121915 23 224 6.0 11.0 0.00 0.00 0.00 78 1024.6
20190115120924 23 226 6.0 11.0 0.00 0.00 0.00 77 1024.8
20190115115938 23 238 5.0 9.0 0.00 0.00 0.00 77 1024.7
20190115114951 23 220 5.0 9.0 0.00 0.00 0.00 77 1024.6
20190115114011 23 241 3.0 7.0 0.00 0.00 0.00 77 1024.6
20190115112958 23 225 2.0 6.0 0.00 0.00 0.00 77 1024.6